It's Wednesday,
August 4th, 2021
User not logged in
[Run Race Header Image][Run Race logo]
  
Race webcasting is attempted by race directors and their support staff. Please remember that conditions under which they're working may make it difficult to post timely webcast updates... your interest and patience is appreciated!
Race Information
Race Name:Mad City 100K - 2010
Location:Madison
State:Wisconsin, United States
 button: button: Webcast Autoplay
Event Information
Name of Event:Mad City 100K (solo)
Distance:100 Kilometers
Started Date/Time:Saturday April 10th, 2010, 6:31:01.16 am
button: Assign Numbers 

Event Information
Name of Event:Mad City 50K Relay (2 to 5 runners)
Distance:50 Kilometers
Started Date/Time:Saturday April 10th, 2010, 8:00:15.00 am
button: Assign Numbers  
Checkpoint:3rd Loop - 30 Km
Distance:18.641 Miles
Gun Start Time:Saturday April 10th, 2010 8:00:15 am
Calculate Chip Start Time:< not set >
Y or N... Calculate splits based upon participant chip start time?
Allow Early Chip Start Time:< not set >
Y or N... Allow participants a chip start time prior to gun start?
Pos Race
Number
NameAgeSexTimePace 
12414 Guys and a Crazy Legs ChampM2:01:45.76:31.9
2346Super YoopersM2:10:45.87:00.9
3336Running with the BadgerM2:11:49.37:04.3
42961/5 of CrazyF2:13:38.37:10.1
5381Movin' ShoesF2:14:12.77:12.0
6251We've Got The Runs M2:15:28.97:16.1
7226Frenetic Fiery Frenzied Flying Feet of FuryM2:21:38.17:35.9
8271Who needs Tabraiz?F2:26:02.77:50.1
9201Whatever, It's Only 50kM2:26:09.27:50.4
10391Chocolate ThunderM2:28:38.97:58.5
11261Madison Multisport OrangeF2:28:39.57:58.5
12246Arborescent RhizomesM2:30:08.98:03.3
13311Marquette Triathlon ClubF2:30:21.08:03.9
14211No Fly ListF2:33:40.48:14.6
15366Welsh WarriorsF2:36:42.68:24.4
16406Wisconsin State JournalF2:37:42.48:27.6
17236SWAT ONEM2:37:52.68:28.2
18331Marquette Triathlon Club 2F2:38:06.28:28.9
19321Honduras ExpressF2:39:49.48:34.4
20266Madison Multisport BlueF2:42:03.98:41.6
21231Taking 10 for the TeamF2:44:14.18:48.6
22306Weary TravelersF2:44:20.18:48.9
23286SVM Runners 3F2:44:46.58:50.4
24401La Famiglia: A Lapacinski's sequelF2:46:32.28:56.0
25361Lawton & Cates M2:46:42.48:56.6
26291SVM Runners 4F2:47:35.28:59.4
27386#1M2:47:37.98:59.6
28351Red Byrd'sF2:47:49.39:00.2
29341Weary Travelers 2F2:50:57.69:10.3
30376Bringing Up the RearF2:52:21.19:14.7
31301Run-ternsF2:55:08.09:23.7
32326Feel the Burn!F2:57:52.09:32.5
33216We Book F2:58:54.79:35.9
34206Outdoor DivasF2:58:54.89:35.9
35281SVM Runners 2F3:01:07.89:43.0
36276SVM RunnersF3:01:07.99:43.0
37371In-Training Exam All-StarsM3:03:27.59:50.5
38221We Book2F3:04:25.19:53.6
39356Blue Byrd'sF3:14:16.010:25.3
40316Oconomowoc FD and PDF3:17:11.110:34.7
41256Got-To-GoF3:33:08.411:26.0

Event Information
Name of Event:Mad City 50K (solo)
Distance:50 Kilometers
Started Date/Time:Saturday April 10th, 2010, 8:00:15.00 am
button: Assign Numbers 
2004-2021 : All rights reserved
Terms and Conditions